Temp
-13 -13 -13 -13 -13 -13 -13 -13 -13 -13 -13 -13 -13 -12 -12 -12 -12 -12 -12 -12 -12 -12 -12 -12 -13 -12 -12 -12 -12 -12 -12 -12 -12 -12 -11 -11 -11 -11 -11 -11 -11 -11 -11
-13 -14 -14 -13 -13 -13 -13 -13 -13 -14 -14 -14 -14 -13 -12 -12 -12 -12 -12 -12 -12 -12 -12 -12 -13 -13 -12 -12 -12 -12 -12 -12 -12 -12 -11 -11 -11 -11 -11 -11 -11 -11 -11
-13 -14 -13 -13 -13 -14 -14 -13 -13 -14 -14 -14 -14 -14 -13 -13 -12 -12 -12 -12 -12 -12 -12 -12 -13 -13 -12 -12 -12 -12 -12 -12 -12 -12 -11 -11 -11 -11 -11 -11 -11 -11 -11
-13 -13 -13 -13 -13 -13 -14 -14 -13 -14 -14 -14 -14 -14 -13 -13 -12 -12 -12 -12 -12 -12 -12 -12 -13 -13 -12 -12 -12 -12 -12 -12 -12 -12 -12 -11 -11 -11 -11 -11 -11 -11 -11
-13 -13 -13 -13 -13 -13 -13 -14 -13 -13 -14 -13 -14 -14 -14 -13 -13 -12 -12 -12 -12 -12 -12 -12 -12 -12 -12 -12 -12 -12 -12 -12 -12 -12 -12 -11 -11 -11 -11 -11 -11 -11 -11
-12 -12 -12 -12 -13 -13 -13 -13 -13 -13 -14 -13 -13 -15 -14 -14 -13 -13 -12 -12 -12 -12 -12 -12 -12 -12 -12 -12 -12 -12 -12 -12 -12 -12 -11 -11 -11 -11 -11 -11 -11 -11 -11
-12 -12 -12 -12 -12 -13 -13 -13 -13 -13 -13 -14 -13 -14 -15 -14 -14 -13 -13 -13 -12 -12 -12 -12 -12 -12 -12 -12 -12 -12 -12 -12 -12 -12 -12 -11 -11 -11 -11 -11 -11 -11 -11
-12 -12 -12 -12 -13 -12 -13 -13 -13 -13 -13 -14 -14 -13 -14 -14 -13 -13 -13 -13 -13 -12 -12 -12 -12 -12 -12 -12 -12 -12 -12 -12 -12 -12 -12 -11 -11 -11 -11 -11 -11 -11 -11
-12 -11 -12 -11 -12 -13 -13 -13 -13 -13 -13 -13 -14 -14 -14 -14 -14 -13 -13 -13 -13 -12 -12 -12 -12 -12 -12 -12 -12 -12 -12 -12 -12 -12 -12 -12 -12 -11 -11 -11 -11 -11 -11
-12 -12 -12 -11 -11 -12 -13 -14 -13 -12 -13 -13 -13 -14 -14 -14 -14 -14 -13 -13 -13 -13 -13 -12 -12 -13 -13 -13 -12 -12 -12 -12 -12 -12 -12 -12 -12 -12 -12 -12 -12 -12 -11
-12 -12 -12 -12 -12 -11 -12 -13 -14 -13 -12 -12 -12 -14 -14 -14 -14 -13 -14 -14 -14 -13 -13 -13 -13 -13 -13 -13 -13 -13 -13 -12 -12 -12 -12 -12 -12 -12 -12 -12 -12 -12 -11
-12 -13 -13 -12 -13 -9 -11 -13 -13 -13 -13 -12 -12 -13 -14 -14 -14 -14 -14 -14 -14 -14 -14 -14 -13 -13 -13 -13 -13 -13 -13 -13 -12 -12 -12 -12 -12 -13 -12 -12 -12 -12 -12
-15 -14 -13 -12 -12 -12 -11 -12 -12 -12 -13 -13 -12 -12 -13 -13 -14 -14 -14 -14 -14 -14 -14 -14 -14 -14 -14 -14 -13 -13 -13 -13 -13 -13 -13 -13 -13 -13 -13 -13 -12 -12 -12
-15 -15 -14 -13 -13 -13 -12 -12 -11 -12 -13 -13 -12 -12 -12 -14 -14 -14 -14 -14 -14 -14 -14 -14 -14 -14 -14 -14 -14 -14 -13 -13 -13 -13 -13 -13 -13 -13 -13 -13 -12 -12 -12
-17 -14 -15 -14 -13 -13 -13 -12 -12 -12 -14 -13 -13 -13 -12 -12 -13 -14 -14 -14 -14 -14 -14 -14 -14 -14 -14 -14 -14 -14 -13 -13 -13 -13 -13 -13 -13 -13 -13 -13 -13 -13 -13
-18 -18 -15 -14 -14 -13 -12 -12 -12 -12 -12 -12 -13 -13 -12 -12 -12 -13 -14 -14 -14 -14 -14 -14 -14 -14 -15 -14 -14 -13 -14 -14 -13 -12 -12 -12 -13 -13 -13 -13 -13 -13 -13
-18 -19 -18 -15 -14 -13 -13 -12 -11 -12 -12 -12 -13 -13 -12 -12 -12 -13 -14 -14 -14 -14 -14 -14 -14 -14 -14 -14 -13 -13 -13 -13 -13 -13 -13 -13 -13 -12 -13 -13 -12 -12 -13
-20 -19 -19 -18 -16 -13 -13 -12 -13 -13 -12 -12 -11 -13 -13 -12 -12 -12 -13 -14 -14 -14 -14 -14 -14 -14 -14 -14 -14 -14 -13 -13 -13 -13 -13 -13 -12 -12 -12 -13 -13 -12 -12
-20 -19 -19 -20 -18 -15 -13 -12 -15 -14 -13 -12 -11 -12 -13 -13 -12 -12 -13 -13 -13 -13 -14 -13 -14 -14 -14 -13 -13 -14 -13 -13 -12 -13 -12 -12 -12 -12 -11 -11 -12 -13 -13
-20 -19 -20 -20 -20 -17 -13 -13 -14 -13 -13 -12 -13 -11 -13 -13 -12 -12 -12 -13 -13 -13 -13 -14 -14 -14 -14 -13 -13 -14 -13 -13 -13 -13 -14 -13 -12 -11 -11 -11 -11 -12 -12
-20 -19 -19 -18 -18 -18 -16 -15 -13 -15 -12 -13 -13 -12 -12 -12 -12 -12 -12 -12 -12 -12 -13 -13 -14 -13 -13 -13 -13 -13 -13 -14 -14 -14 -13 -13 -12 -12 -11 -11 -11 -11 -12
-20 -19 -19 -18 -18 -18 -17 -15 -13 -15 -14 -13 -14 -12 -11 -12 -12 -12 -12 -13 -12 -12 -12 -13 -13 -13 -13 -13 -13 -13 -13 -13 -13 -14 -13 -13 -13 -12 -12 -11 -11 -11 -11
-20 -20 -19 -19 -18 -18 -17 -15 -15 -15 -16 -15 -14 -13 -13 -13 -12 -11 -11 -12 -12 -12 -12 -12 -13 -13 -13 -13 -13 -13 -13 -13 -13 -13 -13 -12 -12 -11 -11 -11 -11 -11 -11
-19 -19 -18 -18 -19 -18 -16 -16 -16 -15 -15 -15 -14 -13 -13 -12 -12 -12 -11 -12 -12 -12 -12 -12 -12 -13 -12 -12 -13 -13 -13 -13 -13 -12 -12 -11 -12 -12 -11 -11 -11 -11 -11
-18 -18 -18 -18 -17 -17 -17 -16 -16 -16 -15 -14 -14 -13 -13 -13 -12 -12 -12 -11 -12 -12 -12 -12 -12 -12 -12 -12 -13 -13 -13 -13 -12 -12 -12 -12 -12 -12 -11 -11 -11 -11 -11
-19 -18 -18 -17 -17 -17 -17 -17 -16 -15 -15 -14 -14 -14 -14 -14 -13 -13 -12 -12 -12 -12 -11 -12 -12 -12 -12 -12 -12 -12 -13 -12 -12 -12 -12 -12 -12 -12 -11 -12 -12 -12 -11
Height
5811 5813 5817 5819 5823 5826 5828 5830 5834 5838 5842 5844 5845 5848 5850 5852 5854 5856 5857 5861 5864 5867 5869 5870 5872 5874 5876 5878 5880 5882 5883 5885 5887 5889 5891 5892 5893 5894 5896 5897 5898 5898 5899
5795 5804 5808 5812 5815 5820 5822 5825 5828 5833 5837 5840 5842 5844 5847 5850 5852 5854 5856 5859 5862 5865 5868 5870 5872 5873 5876 5878 5880 5882 5883 5886 5887 5889 5891 5892 5893 5895 5896 5897 5898 5899 5900
5787 5788 5797 5804 5809 5811 5815 5818 5822 5827 5832 5836 5838 5841 5843 5846 5849 5852 5854 5857 5859 5863 5866 5868 5871 5872 5875 5877 5880 5882 5883 5886 5888 5889 5891 5892 5894 5895 5896 5897 5898 5899 5900
5780 5782 5785 5790 5801 5803 5806 5810 5815 5820 5826 5831 5834 5837 5839 5842 5845 5849 5851 5854 5857 5860 5864 5867 5870 5872 5874 5876 5879 5881 5883 5885 5887 5889 5891 5892 5893 5895 5896 5897 5897 5898 5899
5764 5771 5777 5782 5786 5795 5797 5801 5806 5811 5818 5825 5829 5831 5834 5837 5840 5844 5847 5850 5853 5857 5861 5864 5867 5870 5872 5874 5877 5880 5882 5884 5886 5888 5890 5892 5893 5894 5895 5896 5896 5896 5897
5754 5760 5764 5770 5776 5781 5788 5793 5797 5803 5810 5815 5819 5824 5827 5831 5834 5839 5843 5846 5850 5854 5857 5861 5864 5867 5869 5872 5875 5877 5880 5882 5885 5887 5888 5890 5891 5893 5893 5894 5895 5895 5895
5740 5747 5752 5757 5762 5770 5778 5785 5787 5793 5799 5805 5810 5814 5819 5823 5828 5833 5838 5842 5846 5850 5854 5858 5860 5864 5866 5869 5872 5875 5878 5880 5882 5884 5886 5887 5889 5890 5891 5892 5893 5894 5894
5718 5732 5739 5745 5750 5758 5766 5771 5778 5782 5788 5795 5801 5807 5811 5816 5822 5828 5833 5838 5842 5846 5850 5854 5857 5860 5863 5866 5868 5871 5874 5876 5878 5880 5882 5884 5886 5887 5888 5889 5890 5891 5891
5707 5712 5726 5729 5736 5743 5752 5762 5766 5772 5778 5786 5791 5798 5801 5809 5818 5823 5829 5832 5836 5842 5845 5849 5852 5856 5859 5862 5865 5867 5869 5871 5873 5876 5878 5880 5881 5883 5884 5885 5886 5887 5887
5692 5696 5681 5691 5719 5729 5736 5747 5756 5762 5766 5773 5779 5786 5794 5802 5807 5815 5822 5827 5831 5835 5840 5844 5847 5851 5854 5857 5860 5862 5864 5866 5869 5871 5873 5875 5876 5878 5879 5881 5882 5882 5883
5669 5678 5682 5685 5705 5714 5723 5732 5741 5746 5754 5762 5767 5777 5785 5793 5801 5806 5812 5819 5825 5830 5834 5838 5842 5845 5848 5852 5854 5856 5858 5860 5863 5865 5867 5869 5870 5872 5874 5876 5877 5878 5878
5641 5659 5668 5676 5680 5684 5697 5710 5725 5732 5741 5751 5756 5763 5772 5782 5793 5800 5807 5812 5817 5821 5826 5830 5834 5839 5842 5845 5848 5850 5852 5855 5857 5859 5860 5862 5864 5866 5868 5869 5871 5872 5873
5621 5633 5648 5657 5670 5681 5680 5691 5705 5715 5726 5734 5745 5752 5760 5771 5780 5788 5796 5801 5806 5812 5815 5820 5826 5831 5836 5840 5842 5844 5846 5849 5851 5853 5854 5856 5857 5859 5861 5863 5865 5867 5868
5600 5613 5625 5639 5648 5655 5661 5678 5682 5701 5712 5721 5730 5740 5749 5757 5767 5776 5785 5791 5795 5802 5807 5814 5820 5825 5830 5834 5836 5836 5839 5843 5845 5847 5849 5850 5851 5852 5854 5856 5858 5860 5861
5578 5593 5604 5618 5633 5641 5651 5658 5671 5673 5695 5706 5715 5726 5735 5744 5753 5762 5770 5780 5788 5791 5799 5807 5812 5818 5821 5823 5826 5828 5832 5835 5837 5840 5842 5844 5846 5848 5849 5851 5852 5853 5855
5561 5572 5581 5592 5615 5622 5636 5645 5656 5664 5676 5693 5702 5709 5720 5730 5739 5748 5756 5767 5775 5783 5790 5796 5802 5807 5810 5813 5816 5819 5823 5825 5829 5832 5835 5838 5840 5842 5843 5845 5846 5847 5849
5547 5557 5565 5574 5591 5605 5615 5629 5638 5648 5659 5668 5684 5691 5704 5716 5724 5734 5744 5752 5761 5770 5781 5785 5789 5793 5796 5802 5807 5811 5814 5816 5821 5824 5827 5829 5833 5835 5837 5838 5839 5841 5842
5535 5545 5553 5558 5567 5588 5608 5610 5624 5640 5653 5658 5667 5676 5687 5698 5708 5719 5730 5738 5748 5758 5768 5775 5779 5782 5788 5792 5797 5801 5804 5807 5813 5815 5818 5820 5823 5826 5830 5832 5833 5834 5835
5527 5538 5546 5549 5553 5572 5592 5601 5613 5627 5638 5644 5651 5663 5675 5683 5694 5704 5716 5724 5734 5744 5752 5759 5767 5771 5775 5780 5784 5791 5796 5799 5803 5808 5809 5811 5813 5816 5819 5822 5824 5825 5826
5523 5532 5540 5542 5543 5555 5578 5590 5604 5616 5627 5634 5640 5648 5660 5666 5678 5689 5702 5710 5720 5729 5738 5745 5751 5759 5764 5770 5774 5778 5784 5791 5796 5798 5800 5801 5802 5805 5808 5811 5813 5816 5818
5517 5522 5530 5531 5534 5544 5564 5580 5591 5604 5612 5623 5624 5635 5639 5649 5662 5675 5685 5693 5702 5712 5721 5729 5734 5744 5752 5758 5765 5773 5775 5781 5783 5786 5788 5791 5792 5792 5795 5799 5803 5806 5807
5507 5515 5523 5524 5524 5541 5551 5566 5574 5595 5604 5609 5616 5623 5624 5637 5648 5660 5672 5682 5689 5698 5705 5715 5721 5728 5742 5749 5755 5760 5763 5766 5771 5779 5779 5781 5780 5781 5784 5786 5789 5791 5794
5498 5503 5507 5515 5516 5527 5542 5554 5566 5584 5591 5596 5603 5610 5615 5625 5633 5638 5654 5665 5675 5685 5692 5702 5707 5714 5729 5740 5748 5747 5750 5755 5759 5766 5762 5765 5770 5773 5774 5776 5779 5780 5783
5494 5495 5502 5508 5513 5522 5535 5547 5559 5573 5582 5590 5599 5598 5604 5611 5620 5625 5639 5647 5658 5669 5679 5687 5695 5707 5714 5727 5731 5736 5740 5740 5742 5749 5753 5754 5761 5763 5765 5767 5770 5772 5773
5495 5497 5502 5506 5508 5516 5529 5539 5553 5563 5572 5582 5587 5587 5595 5600 5608 5618 5623 5636 5640 5651 5663 5671 5679 5690 5699 5707 5716 5721 5723 5728 5734 5740 5742 5744 5748 5751 5754 5755 5756 5759 5760
5493 5493 5499 5498 5500 5511 5523 5534 5545 5551 5562 5571 5576 5579 5584 5592 5598 5603 5611 5620 5626 5637 5650 5659 5665 5674 5683 5693 5702 5705 5710 5712 5719 5725 5731 5731 5737 5737 5739 5742 5743 5746 5747
Wind_Speed
35 35 27 27 22 20 21 21 21 20 18 16 14 14 15 19 21 21 21 21 20 19 17 14 14 16 16 15 14 14 13 12 13 13 13 11 10 8 8 8 8 8 8
43 39 34 33 28 24 24 25 25 25 22 19 18 15 17 19 23 22 21 23 22 20 18 17 17 18 18 17 16 15 14 13 13 13 12 10 9 8 7 8 9 8 7
49 44 44 36 36 29 28 29 29 29 27 24 21 18 18 19 23 24 23 24 23 22 21 19 21 21 20 18 17 16 15 14 13 12 11 10 9 8 8 8 8 8 7
56 50 47 41 41 37 33 32 32 32 31 27 25 23 21 22 23 27 26 25 25 24 23 22 22 21 21 20 18 16 16 15 13 11 10 9 7 6 6 7 7 7 6
59 55 49 47 43 44 40 36 34 36 35 33 29 30 27 24 26 28 30 29 27 26 25 25 24 23 22 21 20 18 17 16 14 12 11 9 7 6 5 5 6 7 7
62 55 56 54 49 49 48 41 38 37 37 38 38 35 34 28 29 31 31 31 30 28 28 27 27 26 26 24 23 21 20 18 17 15 14 12 11 9 8 7 7 8 9
58 57 58 57 56 54 50 48 43 40 42 42 43 40 39 36 30 32 34 34 32 31 29 29 28 29 27 27 25 24 22 21 20 19 17 16 15 13 12 11 10 10 10
57 55 59 60 60 59 57 55 50 47 44 46 46 44 43 41 34 30 32 34 35 34 32 31 30 29 28 27 27 26 25 24 23 22 21 19 19 18 17 16 15 15 15
66 58 59 64 64 64 62 59 56 51 48 47 49 48 49 44 37 31 30 31 35 34 34 33 33 31 30 29 27 26 26 25 24 24 24 23 22 22 21 21 20 19 19
72 70 76 71 68 67 68 65 61 56 55 50 52 53 50 48 45 38 32 32 32 34 34 35 34 33 31 29 27 26 25 24 24 24 24 24 24 25 24 24 23 22 22
80 81 75 60 76 65 70 69 67 65 59 55 53 53 52 49 48 45 41 32 32 28 28 34 34 32 30 28 27 27 26 25 24 24 24 24 25 25 25 25 25 24 23
91 84 85 84 68 71 67 73 71 70 64 60 58 55 55 51 49 46 42 37 33 34 31 28 29 29 28 29 26 26 24 24 23 24 24 24 23 23 23 23 24 24 23
97 93 86 89 79 77 54 75 77 73 70 66 62 58 55 53 53 53 50 46 42 39 38 38 35 30 27 24 22 22 22 22 22 23 23 23 23 24 23 22 22 22 22
99 96 94 87 93 87 73 65 66 73 74 70 67 63 58 57 56 54 54 51 48 44 42 38 35 31 30 29 26 26 27 25 24 24 24 24 24 25 25 24 23 23 23
80 94 97 95 90 90 82 59 61 67 75 76 72 67 63 59 58 58 56 55 52 50 42 41 38 36 35 34 33 30 27 27 27 28 28 27 25 25 26 26 25 25 25
67 72 91 100 92 97 86 72 51 57 66 79 77 73 68 65 60 60 59 58 57 53 48 44 43 41 43 43 43 38 33 33 31 29 29 27 25 26 27 29 29 28 28
69 60 65 89 97 94 94 86 75 50 53 80 82 81 73 67 64 61 61 62 63 61 53 52 50 51 49 46 44 42 41 39 34 33 33 32 30 29 30 32 33 33 30
55 64 58 68 91 96 93 94 87 63 56 67 84 86 78 73 68 67 63 64 65 65 61 55 56 54 55 51 49 46 45 42 38 38 37 36 34 33 33 33 36 37 36
34 51 55 55 71 87 89 87 80 69 64 52 72 81 81 75 72 71 67 67 68 67 65 61 59 59 56 57 53 50 48 46 42 41 42 42 42 39 38 36 36 39 40
23 35 40 43 53 75 86 90 71 58 54 58 70 82 86 81 75 74 70 69 68 70 69 66 65 63 61 55 57 53 51 47 42 45 46 48 49 45 42 41 41 41 43
27 28 22 25 36 52 72 73 74 68 66 54 41 59 69 84 80 77 75 72 71 71 73 73 71 68 64 63 59 52 52 49 49 49 51 50 53 52 51 45 42 45 46
40 40 31 32 42 48 58 75 87 67 58 53 36 63 54 73 80 79 78 75 72 72 75 75 75 70 64 64 62 57 57 54 55 52 52 56 57 54 53 48 45 49 49
27 38 45 48 29 37 54 73 73 53 43 48 47 49 42 53 77 82 76 74 74 73 74 74 78 74 67 61 62 62 59 58 58 54 59 60 59 55 52 50 46 50 50
37 38 38 44 32 30 48 59 59 51 50 49 41 40 43 49 63 73 85 82 75 75 73 74 76 75 73 69 67 64 65 64 63 60 58 60 58 54 52 50 45 45 50
16 23 37 35 34 35 39 49 58 58 54 57 40 34 35 38 60 72 67 81 75 74 74 76 75 74 71 65 63 65 64 63 64 60 59 60 56 51 50 50 49 46 46
20 22 22 30 29 28 39 44 48 55 48 46 48 36 28 31 41 44 62 80 89 73 78 78 77 70 67 61 62 65 64 64 64 62 58 60 55 54 52 51 53 52 52
Wind_Direction
234 241 238 242 243 242 241 237 237 228 234 242 244 235 227 213 205 200 196 191 190 190 192 192 190 178 172 168 166 163 159 158 155 148 143 140 139 139 139 131 125 119 112
220 233 236 240 236 237 240 234 234 229 228 233 241 239 225 222 212 207 205 195 192 195 196 196 193 182 179 178 175 176 171 167 166 161 155 149 145 150 149 147 142 133 132
228 219 228 234 236 230 234 236 233 230 224 230 237 238 229 223 219 211 206 202 197 198 200 199 196 189 186 189 188 187 184 181 180 175 173 171 173 172 166 166 166 161 157
233 229 222 229 232 229 228 232 231 230 226 225 234 234 230 223 222 214 208 206 204 201 205 202 204 199 197 197 201 198 194 197 191 192 191 191 193 191 189 191 187 189 187
227 234 229 227 223 230 228 226 229 231 225 222 228 238 236 221 220 219 212 208 206 206 208 207 206 208 210 207 209 209 206 206 207 207 211 212 214 216 220 222 221 225 221
242 236 235 228 227 224 229 223 227 229 227 223 220 229 235 228 220 220 218 211 209 211 212 210 210 211 213 216 216 217 217 218 221 221 223 227 231 233 234 237 242 246 245
243 244 236 235 228 226 225 229 224 225 229 225 226 219 230 233 221 221 221 220 216 218 218 215 213 217 217 220 222 224 225 227 230 232 233 236 237 240 245 249 251 250 251
240 237 237 236 234 229 224 225 226 225 226 226 226 225 225 235 226 224 226 225 225 223 222 222 220 220 222 223 225 228 230 232 235 240 243 244 245 245 246 250 253 256 257
238 230 235 234 233 230 226 227 226 225 225 227 229 227 224 228 232 227 228 230 229 228 226 226 226 225 226 228 230 233 236 238 240 242 245 248 248 249 251 255 257 260 261
231 230 233 221 227 228 225 224 227 226 226 223 227 228 226 226 230 231 230 231 229 229 230 231 232 234 234 234 234 236 239 242 245 247 250 252 255 256 255 258 261 264 267
229 229 228 233 217 225 227 223 224 227 226 224 227 228 229 228 228 224 229 226 230 231 233 234 235 235 238 238 238 239 239 240 244 247 249 253 254 255 258 261 263 264 266
238 227 229 230 239 217 217 221 223 225 226 225 225 225 228 229 231 227 229 228 224 226 230 228 230 233 235 238 239 241 243 245 244 246 248 250 254 255 257 261 264 265 266
241 240 228 226 222 220 227 218 221 221 224 225 226 226 226 226 227 225 226 229 233 224 222 226 225 222 224 231 236 243 244 245 244 242 244 247 250 252 253 255 259 263 264
243 242 238 227 228 234 227 228 214 219 223 225 223 225 225 225 227 227 226 226 230 234 225 225 225 219 221 227 234 237 239 244 248 248 248 246 249 251 253 256 257 260 261
238 239 241 238 227 221 229 227 221 220 220 224 225 223 224 224 224 224 227 226 230 232 228 220 226 230 227 225 226 231 235 240 241 245 249 248 251 257 260 257 258 258 259
243 240 235 239 230 226 225 215 216 209 221 227 225 225 223 222 222 225 221 225 228 231 229 226 225 226 229 230 232 233 237 240 245 248 249 250 251 252 257 261 258 253 256
239 238 242 235 234 231 225 223 219 222 236 218 225 226 223 222 222 221 220 222 226 229 227 231 227 226 225 228 232 235 238 243 246 247 246 252 256 252 253 256 261 261 256
242 239 243 244 235 230 225 228 230 230 231 232 223 224 222 221 220 221 219 220 224 229 230 229 235 234 232 231 234 234 240 246 247 248 247 254 256 260 263 260 257 260 261
239 235 238 252 243 229 225 228 238 238 233 238 219 226 226 221 221 221 220 218 221 226 232 232 233 236 234 231 232 237 243 248 251 252 255 258 262 266 261 256 254 254 256
233 228 239 257 254 235 221 228 233 211 221 220 224 224 226 221 222 223 222 220 221 223 228 230 230 233 235 235 234 236 242 251 258 259 262 263 264 268 268 260 251 251 253
218 196 237 237 250 236 228 224 227 229 219 235 243 230 221 222 223 222 221 220 219 221 225 229 229 232 233 234 235 239 243 249 254 256 261 263 265 269 269 269 261 249 250
210 222 231 225 222 219 230 222 229 230 230 235 249 219 223 218 223 224 224 222 223 222 225 228 231 231 234 234 235 240 242 244 250 253 258 259 261 264 267 271 264 247 247
214 212 210 220 203 213 225 224 232 224 244 247 251 237 243 242 230 221 222 217 227 226 228 228 232 232 232 236 237 240 240 244 248 250 251 254 258 263 268 270 269 248 248
194 183 181 184 185 201 228 229 232 237 231 237 242 242 243 234 230 225 226 221 226 225 231 232 235 235 237 238 240 243 244 243 243 246 249 256 261 264 265 268 269 265 257
183 169 195 190 175 205 213 225 226 238 224 235 240 234 238 239 227 233 223 225 224 222 229 232 235 236 236 235 240 241 241 243 247 247 250 254 259 263 262 261 262 263 256
208 174 181 169 167 192 209 218 231 239 230 237 241 244 261 257 237 236 224 229 227 225 229 233 233 235 236 235 235 240 241 240 243 244 250 256 258 259 256 259 258 259 260